| time (UTC) | temp F | wind direction | speed MPH | gust MPH | rain 1hr in | rain 24hr in | rain mn in | humidity % | barometer mb |
| 20260504035528 | 60 | 214 | 4.0 | 10.0 | 0.00 | 0.00 | 0.00 | 36 | 999.3 |
| 20260504035032 | 60 | 215 | 5.0 | 10.0 | 0.00 | 0.00 | 0.00 | 35 | 999.5 |
| 20260504034549 | 60 | 210 | 4.0 | 9.0 | 0.00 | 0.00 | 0.00 | 35 | 999.5 |
| 20260504034027 | 61 | 159 | 5.0 | 9.0 | 0.00 | 0.00 | 0.00 | 35 | 999.8 |
| 20260504033530 | 61 | 209 | 3.0 | 9.0 | 0.00 | 0.00 | 0.00 | 35 | 999.8 |
| 20260504033042 | 61 | 167 | 5.0 | 9.0 | 0.00 | 0.00 | 0.00 | 34 | 1000.0 |
| 20260504032528 | 61 | 169 | 5.0 | 9.0 | 0.00 | 0.00 | 0.00 | 34 | 1000.1 |
| 20260504032028 | 61 | 179 | 5.0 | 9.0 | 0.00 | 0.00 | 0.00 | 34 | 1000.3 |
| 20260504031545 | 61 | 175 | 4.0 | 9.0 | 0.00 | 0.00 | 0.00 | 34 | 1000.3 |
| 20260504031027 | 61 | 198 | 4.0 | 9.0 | 0.00 | 0.00 | 0.00 | 33 | 1000.6 |
| 20260504030527 | 61 | 198 | 4.0 | 9.0 | 0.00 | 0.00 | 0.00 | 33 | 1000.7 |
| 20260504030048 | 61 | 193 | 4.0 | 9.0 | 0.00 | 0.00 | 0.00 | 33 | 1000.8 |
| 20260504025528 | 61 | 202 | 4.0 | 9.0 | 0.00 | 0.00 | 0.00 | 33 | 1001.0 |
| 20260504025028 | 61 | 155 | 3.0 | 7.0 | 0.00 | 0.00 | 0.00 | 33 | 1001.1 |
| 20260504024542 | 61 | 172 | 4.0 | 7.0 | 0.00 | 0.00 | 0.00 | 33 | 1001.2 |
| 20260504024024 | 61 | 219 | 4.0 | 7.0 | 0.00 | 0.00 | 0.00 | 33 | 1001.4 |
| 20260504023528 | 61 | 198 | 3.0 | 6.0 | 0.00 | 0.00 | 0.00 | 33 | 1001.5 |
| 20260504023041 | 61 | 199 | 3.0 | 6.0 | 0.00 | 0.00 | 0.00 | 32 | 1001.6 |
| 20260504022530 | 61 | 155 | 3.0 | 5.0 | 0.00 | 0.00 | 0.00 | 32 | 1001.6 |
| 20260504022028 | 61 | 205 | 2.0 | 4.0 | 0.00 | 0.00 | 0.00 | 32 | 1001.7 |
| 20260504021546 | 61 | 196 | 2.0 | 4.0 | 0.00 | 0.00 | 0.00 | 32 | 1001.7 |
| 20260504021027 | 62 | 198 | 2.0 | 4.0 | 0.00 | 0.00 | 0.00 | 31 | 1001.9 |
| 20260504020527 | 62 | 204 | 2.0 | 4.0 | 0.00 | 0.00 | 0.00 | 31 | 1001.9 |
| 20260504020059 | 62 | 191 | 2.0 | 4.0 | 0.00 | 0.00 | 0.00 | 31 | 1002.0 |
| 20260504015527 | 62 | 162 | 2.0 | 3.0 | 0.00 | 0.00 | 0.00 | 31 | 1002.2 |
| 20260504015028 | 62 | 182 | 2.0 | 4.0 | 0.00 | 0.00 | 0.00 | 30 | 1002.3 |
| 20260504014551 | 63 | 186 | 2.0 | 4.0 | 0.00 | 0.00 | 0.00 | 30 | 1002.3 |
| 20260504014027 | 63 | 195 | 1.0 | 2.0 | 0.00 | 0.00 | 0.00 | 29 | 1002.4 |
| 20260504013527 | 63 | 193 | 0.0 | 2.0 | 0.00 | 0.00 | 0.00 | 29 | 1002.5 |
| 20260504013047 | 63 | 250 | 1.0 | 2.0 | 0.00 | 0.00 | 0.00 | 29 | 1002.6 |
| 20260504012527 | 63 | 231 | 0.0 | 2.0 | 0.00 | 0.00 | 0.00 | 29 | 1002.8 |
| 20260504012028 | 64 | 220 | 0.0 | 3.0 | 0.00 | 0.00 | 0.00 | 29 | 1002.8 |
| 20260504011545 | 64 | 203 | 0.0 | 3.0 | 0.00 | 0.00 | 0.00 | 28 | 1002.9 |
| 20260504011026 | 64 | 213 | 0.0 | 3.0 | 0.00 | 0.00 | 0.00 | 28 | 1002.9 |
| 20260504010526 | 65 | 279 | 0.0 | 9.0 | 0.00 | 0.00 | 0.00 | 27 | 1003.0 |
| 20260504010041 | 65 | 266 | 3.0 | 9.0 | 0.00 | 0.00 | 0.00 | 27 | 1003.0 |
| 20260504005528 | 65 | 271 | 2.0 | 7.0 | 0.00 | 0.00 | 0.00 | 27 | 1003.2 |
| 20260504005028 | 65 | 268 | 1.0 | 4.0 | 0.00 | 0.00 | 0.00 | 27 | 1003.3 |
| 20260504004541 | 65 | 148 | 1.0 | 4.0 | 0.00 | 0.00 | 0.00 | 27 | 1003.2 |
| 20260504004027 | 66 | 278 | 1.0 | 5.0 | 0.00 | 0.00 | 0.00 | 27 | 1003.4 |
| 20260504003527 | 66 | 288 | 1.0 | 6.0 | 0.00 | 0.00 | 0.00 | 27 | 1003.4 |
| 20260504003047 | 66 | 287 | 2.0 | 6.0 | 0.00 | 0.00 | 0.00 | 27 | 1003.4 |
| 20260504002527 | 66 | 252 | 2.0 | 10.0 | 0.00 | 0.00 | 0.00 | 27 | 1003.6 |
| 20260504002027 | 66 | 232 | 3.0 | 10.0 | 0.00 | 0.00 | 0.00 | 26 | 1003.8 |
| 20260504001548 | 66 | 245 | 2.0 | 7.0 | 0.00 | 0.00 | 0.00 | 27 | 1003.8 |
| 20260504001030 | 66 | 252 | 3.0 | 8.0 | 0.00 | 0.00 | 0.00 | 26 | 1003.9 |
| 20260504000525 | 67 | 271 | 3.0 | 8.0 | 0.00 | 0.00 | 0.00 | 26 | 1003.9 |
| 20260504000049 | 67 | 233 | 3.0 | 7.0 | 0.00 | 0.00 | 0.00 | 26 | 1003.9 |
| 20260503235527 | 67 | 247 | 2.0 | 9.0 | 0.00 | 0.00 | 0.00 | 25 | 1004.0 |
| 20260503235025 | 67 | 279 | 4.0 | 9.0 | 0.00 | 0.00 | 0.00 | 25 | 1003.9 |
| 20260503234543 | 67 | 262 | 3.0 | 8.0 | 0.00 | 0.00 | 0.00 | 25 | 1003.8 |
| 20260503234027 | 68 | 27 | 2.0 | 9.0 | 0.00 | 0.00 | 0.00 | 25 | 1003.9 |
| 20260503233527 | 67 | 233 | 3.0 | 9.0 | 0.00 | 0.00 | 0.00 | 25 | 1004.0 |
| 20260503233040 | 67 | 293 | 4.0 | 10.0 | 0.00 | 0.00 | 0.00 | 25 | 1004.0 |
| 20260503232526 | 67 | 245 | 3.0 | 11.0 | 0.00 | 0.00 | 0.00 | 25 | 1004.1 |
| 20260503232028 | 67 | 288 | 4.0 | 14.0 | 0.00 | 0.00 | 0.00 | 24 | 1004.3 |
| 20260503231541 | 68 | 250 | 4.0 | 14.0 | 0.00 | 0.00 | 0.00 | 23 | 1004.4 |
| 20260503231025 | 68 | 273 | 4.0 | 14.0 | 0.00 | 0.00 | 0.00 | 23 | 1004.4 |
| 20260503230529 | 68 | 274 | 3.0 | 13.0 | 0.00 | 0.00 | 0.00 | 25 | 1004.5 |
| 20260503230047 | 68 | 262 | 7.0 | 12.0 | 0.00 | 0.00 | 0.00 | 24 | 1004.5 |
| 20260503225530 | 68 | 286 | 5.0 | 12.0 | 0.00 | 0.00 | 0.00 | 24 | 1004.5 |
| 20260503225029 | 68 | 10 | 2.0 | 10.0 | 0.00 | 0.00 | 0.00 | 25 | 1004.5 |
| 20260503224547 | 68 | 240 | 3.0 | 10.0 | 0.00 | 0.00 | 0.00 | 25 | 1004.5 |
| 20260503224027 | 68 | 17 | 4.0 | 10.0 | 0.00 | 0.00 | 0.00 | 25 | 1004.6 |
| 20260503223527 | 67 | 306 | 2.0 | 9.0 | 0.00 | 0.00 | 0.00 | 25 | 1004.6 |
| 20260503223043 | 67 | 249 | 4.0 | 9.0 | 0.00 | 0.00 | 0.00 | 24 | 1004.6 |
| 20260503222529 | 67 | 284 | 3.0 | 7.0 | 0.00 | 0.00 | 0.00 | 24 | 1004.6 |
| 20260503222030 | 67 | 313 | 4.0 | 13.0 | 0.00 | 0.00 | 0.00 | 24 | 1004.6 |
| 20260503221542 | 67 | 243 | 4.0 | 14.0 | 0.00 | 0.00 | 0.00 | 25 | 1004.7 |
| 20260503221029 | 67 | 233 | 5.0 | 14.0 | 0.00 | 0.00 | 0.00 | 26 | 1004.6 |
| 20260503220529 | 67 | 293 | 4.0 | 14.0 | 0.00 | 0.00 | 0.00 | 25 | 1004.5 |
| 20260503220042 | 67 | 311 | 5.0 | 16.0 | 0.00 | 0.00 | 0.00 | 25 | 1004.6 |
| 20260503215529 | 68 | 294 | 5.0 | 16.0 | 0.00 | 0.00 | 0.00 | 24 | 1004.7 |
| 20260503215028 | 68 | 311 | 4.0 | 12.0 | 0.00 | 0.00 | 0.00 | 24 | 1004.7 |
| 20260503214543 | 69 | 345 | 4.0 | 12.0 | 0.00 | 0.00 | 0.00 | 24 | 1004.7 |
| 20260503214030 | 68 | 304 | 3.0 | 12.0 | 0.00 | 0.00 | 0.00 | 25 | 1004.7 |
| 20260503213528 | 68 | 229 | 2.0 | 12.0 | 0.00 | 0.00 | 0.00 | 25 | 1004.8 |
| 20260503213044 | 68 | 262 | 3.0 | 8.0 | 0.00 | 0.00 | 0.00 | 24 | 1004.9 |
| 20260503212529 | 68 | 332 | 4.0 | 8.0 | 0.00 | 0.00 | 0.00 | 25 | 1004.9 |
| 20260503212029 | 68 | 288 | 3.0 | 8.0 | 0.00 | 0.00 | 0.00 | 24 | 1005.3 |
| 20260503211605 | 68 | 250 | 4.0 | 9.0 | 0.00 | 0.00 | 0.00 | 24 | 1005.3 |
| 20260503211029 | 68 | 338 | 4.0 | 10.0 | 0.00 | 0.00 | 0.00 | 24 | 1005.4 |
| 20260503210529 | 68 | 278 | 4.0 | 10.0 | 0.00 | 0.00 | 0.00 | 24 | 1005.5 |
| 20260503210043 | 68 | 351 | 4.0 | 11.0 | 0.00 | 0.00 | 0.00 | 24 | 1005.5 |
| 20260503205529 | 68 | 304 | 3.0 | 11.0 | 0.00 | 0.00 | 0.00 | 25 | 1005.6 |
| 20260503205029 | 68 | 314 | 3.0 | 8.0 | 0.00 | 0.00 | 0.00 | 25 | 1005.8 |
| 20260503204542 | 68 | 300 | 3.0 | 8.0 | 0.00 | 0.00 | 0.00 | 23 | 1005.7 |
| 20260503204031 | 67 | 76 | 2.0 | 9.0 | 0.00 | 0.00 | 0.00 | 25 | 1005.9 |
| 20260503203533 | 67 | 291 | 4.0 | 9.0 | 0.00 | 0.00 | 0.00 | 24 | 1005.9 |
| 20260503203047 | 67 | 307 | 4.0 | 11.0 | 0.00 | 0.00 | 0.00 | 25 | 1006.0 |
| 20260503202529 | 67 | 291 | 3.0 | 11.0 | 0.00 | 0.00 | 0.00 | 25 | 1006.0 |
| 20260503202029 | 67 | 266 | 6.0 | 11.0 | 0.00 | 0.00 | 0.00 | 24 | 1006.2 |
| 20260503201542 | 67 | 247 | 3.0 | 10.0 | 0.00 | 0.00 | 0.00 | 24 | 1006.2 |
| 20260503201028 | 68 | 300 | 2.0 | 10.0 | 0.00 | 0.00 | 0.00 | 25 | 1006.2 |
| 20260503200529 | 67 | 30 | 4.0 | 13.0 | 0.00 | 0.00 | 0.00 | 24 | 1006.2 |
| 20260503200056 | 67 | 8 | 3.0 | 13.0 | 0.00 | 0.00 | 0.00 | 23 | 1006.4 |
| 20260503195529 | 66 | 271 | 2.0 | 13.0 | 0.00 | 0.00 | 0.00 | 24 | 1006.5 |
| 20260503195029 | 67 | 63 | 6.0 | 13.0 | 0.00 | 0.00 | 0.00 | 23 | 1006.6 |
| 20260503194547 | 67 | 281 | 3.0 | 12.0 | 0.00 | 0.00 | 0.00 | 24 | 1006.6 |
| 20260503194028 | 67 | 212 | 1.0 | 12.0 | 0.00 | 0.00 | 0.00 | 25 | 1006.7 |
| 20260503193529 | 67 | 276 | 4.0 | 12.0 | 0.00 | 0.00 | 0.00 | 24 | 1006.7 |
| 20260503193055 | 67 | 306 | 2.0 | 11.0 | 0.00 | 0.00 | 0.00 | 25 | 1006.7 |
| 20260503192529 | 66 | 287 | 3.0 | 11.0 | 0.00 | 0.00 | 0.00 | 25 | 1006.8 |
| 20260503192028 | 66 | 293 | 4.0 | 10.0 | 0.00 | 0.00 | 0.00 | 25 | 1006.9 |
| 20260503191545 | 66 | 63 | 2.0 | 11.0 | 0.00 | 0.00 | 0.00 | 25 | 1007.0 |
| 20260503191029 | 66 | 264 | 2.0 | 11.0 | 0.00 | 0.00 | 0.00 | 25 | 1007.3 |
| 20260503190529 | 66 | 359 | 3.0 | 9.0 | 0.00 | 0.00 | 0.00 | 26 | 1007.1 |
| 20260503190047 | 65 | 48 | 3.0 | 8.0 | 0.00 | 0.00 | 0.00 | 25 | 1007.2 |
| 20260503185528 | 65 | 332 | 2.0 | 9.0 | 0.00 | 0.00 | 0.00 | 26 | 1007.4 |
| 20260503185029 | 64 | 298 | 2.0 | 9.0 | 0.00 | 0.00 | 0.00 | 27 | 1007.4 |
| 20260503184552 | 64 | 11 | 3.0 | 9.0 | 0.00 | 0.00 | 0.00 | 25 | 1007.4 |
| 20260503184030 | 64 | 358 | 4.0 | 11.0 | 0.00 | 0.00 | 0.00 | 28 | 1007.6 |
| 20260503183529 | 63 | 337 | 4.0 | 11.0 | 0.00 | 0.00 | 0.00 | 27 | 1007.5 |
| 20260503183043 | 63 | 342 | 3.0 | 8.0 | 0.00 | 0.00 | 0.00 | 26 | 1007.6 |
| 20260503182528 | 63 | 58 | 3.0 | 10.0 | 0.00 | 0.00 | 0.00 | 26 | 1007.7 |
| 20260503182032 | 63 | 342 | 2.0 | 10.0 | 0.00 | 0.00 | 0.00 | 28 | 1007.8 |
| 20260503181608 | 63 | 41 | 3.0 | 10.0 | 0.00 | 0.00 | 0.00 | 27 | 1007.9 |
| 20260503181028 | 63 | 352 | 3.0 | 8.0 | 0.00 | 0.00 | 0.00 | 27 | 1007.9 |
| 20260503180528 | 63 | 266 | 3.0 | 7.0 | 0.00 | 0.00 | 0.00 | 28 | 1008.1 |
| 20260503180106 | 62 | 277 | 2.0 | 12.0 | 0.00 | 0.00 | 0.00 | 28 | 1008.1 |
| 20260503175529 | 62 | 274 | 3.0 | 12.0 | 0.00 | 0.00 | 0.00 | 26 | 1008.2 |
| 20260503175029 | 62 | 319 | 5.0 | 12.0 | 0.00 | 0.00 | 0.00 | 28 | 1008.3 |
| 20260503174551 | 62 | 308 | 2.0 | 8.0 | 0.00 | 0.00 | 0.00 | 28 | 1008.3 |
| 20260503174030 | 62 | 333 | 3.0 | 10.0 | 0.00 | 0.00 | 0.00 | 28 | 1008.5 |
| 20260503173529 | 62 | 272 | 2.0 | 10.0 | 0.00 | 0.00 | 0.00 | 29 | 1008.5 |
| 20260503173053 | 62 | 297 | 3.0 | 10.0 | 0.00 | 0.00 | 0.00 | 27 | 1008.5 |
| 20260503172528 | 62 | 320 | 3.0 | 10.0 | 0.00 | 0.00 | 0.00 | 29 | 1008.5 |
| 20260503172031 | 62 | 28 | 4.0 | 10.0 | 0.00 | 0.00 | 0.00 | 26 | 1008.7 |
| 20260503171540 | 62 | 345 | 4.0 | 10.0 | 0.00 | 0.00 | 0.00 | 27 | 1008.7 |
| 20260503171031 | 62 | 17 | 2.0 | 11.0 | 0.00 | 0.00 | 0.00 | 26 | 1008.6 |
| 20260503170532 | 62 | 335 | 4.0 | 11.0 | 0.00 | 0.00 | 0.00 | 28 | 1008.6 |
| 20260503150531 | 57 | 314 | 3.0 | 8.0 | 0.00 | 0.00 | 0.00 | 37 | 1008.7 |
| 20260503131027 | 52 | 326 | 1.0 | 7.0 | 0.00 | 0.00 | 0.00 | 61 | 1008.2 |
| 20260503130529 | 51 | 335 | 1.0 | 8.0 | 0.00 | 0.00 | 0.00 | 62 | 1008.1 |
| 20260503110528 | 43 | 293 | 0.0 | 1.0 | 0.00 | 0.00 | 0.00 | 78 | 1006.8 |
| 20260503081544 | 45 | 0 | 0.0 | 0.0 | 0.00 | 0.00 | 0.00 | 66 | 1005.7 |
| 20260503081028 | 45 | 0 | 0.0 | 0.0 | 0.00 | 0.00 | 0.00 | 66 | 1005.6 |
| 20260503080528 | 46 | 0 | 0.0 | 0.0 | 0.00 | 0.00 | 0.00 | 65 | 1005.7 |
| 20260503072528 | 48 | 0 | 0.0 | 1.0 | 0.00 | 0.00 | 0.00 | 60 | 1005.7 |
| 20260503072031 | 49 | 0 | 0.0 | 1.0 | 0.00 | 0.00 | 0.00 | 59 | 1005.8 |
| 20260503071552 | 49 | 132 | 0.0 | 1.0 | 0.00 | 0.00 | 0.00 | 59 | 1005.8 |
| 20260503071028 | 49 | 0 | 0.0 | 0.0 | 0.00 | 0.00 | 0.00 | 58 | 1005.9 |
| 20260503070528 | 50 | 0 | 0.0 | 0.0 | 0.00 | 0.00 | 0.00 | 57 | 1005.9 |
| 20260503055028 | 54 | 174 | 1.0 | 6.0 | 0.00 | 0.00 | 0.00 | 50 | 1006.0 |
| 20260503054546 | 54 | 149 | 1.0 | 5.0 | 0.00 | 0.00 | 0.00 | 49 | 1006.1 |
| 20260503054029 | 54 | 100 | 2.0 | 5.0 | 0.00 | 0.00 | 0.00 | 49 | 1006.1 |
| 20260503053528 | 55 | 166 | 1.0 | 6.0 | 0.00 | 0.00 | 0.00 | 49 | 1006.1 |
| 20260503053042 | 55 | 132 | 2.0 | 6.0 | 0.00 | 0.00 | 0.00 | 49 | 1006.2 |
| 20260503052529 | 55 | 142 | 3.0 | 5.0 | 0.00 | 0.00 | 0.00 | 48 | 1006.2 |
| 20260503052028 | 55 | 172 | 2.0 | 6.0 | 0.00 | 0.00 | 0.00 | 48 | 1006.2 |
| 20260503051541 | 55 | 116 | 2.0 | 9.0 | 0.00 | 0.00 | 0.00 | 48 | 1006.2 |
| 20260503051031 | 56 | 139 | 3.0 | 9.0 | 0.00 | 0.00 | 0.00 | 47 | 1006.2 |
| 20260503050525 | 56 | 122 | 3.0 | 12.0 | 0.00 | 0.00 | 0.00 | 47 | 1006.2 |
| 20260503050041 | 56 | 137 | 4.0 | 12.0 | 0.00 | 0.00 | 0.00 | 47 | 1006.2 |
| 20260503045528 | 56 | 143 | 4.0 | 10.0 | 0.00 | 0.00 | 0.00 | 47 | 1006.2 |
| 20260503045028 | 56 | 134 | 3.0 | 10.0 | 0.00 | 0.00 | 0.00 | 48 | 1006.3 |
| 20260503044547 | 56 | 139 | 3.0 | 10.0 | 0.00 | 0.00 | 0.00 | 48 | 1006.5 |
| 20260503044027 | 56 | 161 | 3.0 | 8.0 | 0.00 | 0.00 | 0.00 | 48 | 1006.3 |
| 20260503043527 | 55 | 129 | 2.0 | 6.0 | 0.00 | 0.00 | 0.00 | 48 | 1006.5 |
| 20260503043040 | 55 | 112 | 1.0 | 6.0 | 0.00 | 0.00 | 0.00 | 49 | 1006.6 |
| 20260503042530 | 56 | 122 | 1.0 | 5.0 | 0.00 | 0.00 | 0.00 | 49 | 1006.6 |
| 20260503042028 | 56 | 101 | 2.0 | 5.0 | 0.00 | 0.00 | 0.00 | 48 | 1006.7 |
| 20260503041544 | 56 | 113 | 1.0 | 4.0 | 0.00 | 0.00 | 0.00 | 48 | 1006.9 |
| 20260503041030 | 56 | 89 | 1.0 | 6.0 | 0.00 | 0.00 | 0.00 | 48 | 1007.0 |
| 20260503040529 | 56 | 127 | 1.0 | 6.0 | 0.00 | 0.00 | 0.00 | 48 | 1007.0 |
| 20260503040043 | 56 | 76 | 1.0 | 3.0 | 0.00 | 0.00 | 0.00 | 48 | 1007.1 |